When you browse on this site, cookies collect data to enhance your experience and personalize the content and advertising you see.
Visit our Privacy Policy to learn more. By continuing to use the site, you agree to this use of cookies and data.
  • In Belgium
  • List of Countries
  • For 7 days
  • Water Temperature
  • Satellite Maps
  • Weather Map
  • Weather Widgets
  • user-avatar
    Login

    Hourly Weather Albany

    Today, 10 December, Monday

    Time Temperature Precipitation Wind Pressure Humidity
    00:00 +15°C° 0 mm 4 mps 758 mmHg 88%
    01:00 +15°C° 0 mm 4 mps 758 mmHg 90%
    02:00 +14°C° 0 mm 4 mps 757 mmHg 91%
    03:00 +14°C° 0 mm 3 mps 757 mmHg 92%
    04:00 +14°C° 0 mm 3 mps 757 mmHg 93%
    05:00 +14°C° 0 mm 3 mps 756 mmHg 94%
    06:00 +17°C° 0 mm 3 mps 756 mmHg 87%
    07:00 +19°C° 0 mm 3 mps 756 mmHg 79%
    08:00 +20°C° 0 mm 2 mps 756 mmHg 72%
    09:00 +22°C° 0 mm 3 mps 756 mmHg 67%
    10:00 +25°C° 0 mm 3 mps 755 mmHg 61%
    11:00 +26°C° 0 mm 3 mps 755 mmHg 56%
    12:00 +26°C° 0 mm 3 mps 754 mmHg 57%
    13:00 +26°C° 0 mm 4 mps 754 mmHg 58%
    14:00 +26°C° 0 mm 4 mps 754 mmHg 59%
    15:00 +25°C° 0 mm 5 mps 754 mmHg 63%
    16:00 +22°C° 0 mm 5 mps 754 mmHg 67%
    17:00 +21°C° 0 mm 6 mps 753 mmHg 71%
    18:00 +20°C° 0 mm 6 mps 754 mmHg 75%
    19:00 +19°C° 0 mm 5 mps 754 mmHg 79%
    20:00 +17°C° 0 mm 5 mps 754 mmHg 83%
    21:00 +18°C° 0 mm 4 mps 754 mmHg 82%
    22:00 +17°C° 0 mm 3 mps 754 mmHg 81%
    23:00 +17°C° 0 mm 3 mps 755 mmHg 80%

    Tomorrow, 11 December, Tuesday

    Time Temperature Precipitation Wind Pressure Humidity
    00:00 +17°C° 0 mm 3 mps 754 mmHg 80%
    01:00 +17°C° 0 mm 2 mps 754 mmHg 80%
    02:00 +17°C° 0 mm 2 mps 754 mmHg 81%
    03:00 +16°C° 0 mm 3 mps 754 mmHg 82%
    04:00 +14°C° 0 mm 4 mps 754 mmHg 83%
    05:00 +14°C° 0 mm 4 mps 754 mmHg 84%
    06:00 +15°C° 0 mm 5 mps 754 mmHg 77%
    07:00 +16°C° 0 mm 5 mps 754 mmHg 70%
    08:00 +19°C° 0 mm 5 mps 754 mmHg 63%
    09:00 +21°C° 0 mm 6 mps 754 mmHg 56%
    10:00 +22°C° 0 mm 6 mps 754 mmHg 49%
    11:00 +24°C° 0 mm 6 mps 753 mmHg 42%
    12:00 +26°C° 0 mm 7 mps 753 mmHg 43%
    13:00 +26°C° 0 mm 7 mps 753 mmHg 43%
    14:00 +27°C° 0 mm 8 mps 752 mmHg 43%
    15:00 +26°C° 0 mm 8 mps 752 mmHg 49%
    16:00 +23°C° 0 mm 9 mps 752 mmHg 55%
    17:00 +22°C° 0 mm 9 mps 752 mmHg 61%
    18:00 +21°C° 0.2 mm 8 mps 753 mmHg 68%
    19:00 +20°C° 0.2 mm 8 mps 754 mmHg 75%
    20:00 +18°C° 0.2 mm 7 mps 754 mmHg 81%
    21:00 +17°C° 0.1 mm 6 mps 755 mmHg 82%
    22:00 +17°C° 0.1 mm 6 mps 755 mmHg 83%
    23:00 +16°C° 0.1 mm 5 mps 756 mmHg 84%

    Day after tomorrow, 12 December, Wednesday

    Time Temperature Precipitation Wind Pressure Humidity
    00:00 +15°C° 0.1 mm 5 mps 756 mmHg 84%
    01:00 +15°C° 0.1 mm 5 mps 756 mmHg 84%
    02:00 +14°C° 0.1 mm 5 mps 756 mmHg 84%
    03:00 +14°C° 0 mm 5 mps 757 mmHg 83%
    04:00 +14°C° 0 mm 5 mps 757 mmHg 82%
    05:00 +14°C° 0 mm 5 mps 758 mmHg 81%
    06:00 +14°C° 0 mm 5 mps 758 mmHg 78%
    07:00 +15°C° 0 mm 5 mps 759 mmHg 74%
    08:00 +15°C° 0 mm 5 mps 760 mmHg 71%
    09:00 +15°C° 0 mm 5 mps 760 mmHg 66%
    10:00 +16°C° 0 mm 5 mps 760 mmHg 61%
    11:00 +18°C° 0 mm 4 mps 761 mmHg 56%
    12:00 +18°C° 0 mm 4 mps 761 mmHg 55%
    13:00 +18°C° 0 mm 4 mps 761 mmHg 55%
    14:00 +18°C° 0 mm 4 mps 761 mmHg 54%
    15:00 +18°C° 0 mm 4 mps 761 mmHg 54%
    16:00 +18°C° 0 mm 4 mps 761 mmHg 54%
    17:00 +18°C° 0 mm 4 mps 761 mmHg 54%
    18:00 +17°C° 0 mm 4 mps 762 mmHg 59%
    19:00 +14°C° 0 mm 4 mps 762 mmHg 64%
    20:00 +13°C° 0 mm 4 mps 763 mmHg 68%
    21:00 +13°C° 0 mm 4 mps 763 mmHg 70%
    22:00 +12°C° 0 mm 4 mps 763 mmHg 72%
    23:00 +12°C° 0 mm 4 mps 763 mmHg 73%

    13 December, Thursday

    Time Temperature Precipitation Wind Pressure Humidity
    00:00 +12°C° 0 mm 4 mps 763 mmHg 75%
    01:00 +12°C° 0 mm 4 mps 763 mmHg 76%
    02:00 +11°C° 0 mm 4 mps 762 mmHg 77%
    03:00 +11°C° 0 mm 4 mps 762 mmHg 78%
    04:00 +11°C° 0 mm 4 mps 762 mmHg 80%
    05:00 +11°C° 0 mm 4 mps 762 mmHg 81%
    06:00 +13°C° 0 mm 4 mps 762 mmHg 74%
    07:00 +15°C° 0 mm 5 mps 762 mmHg 66%
    08:00 +17°C° 0 mm 5 mps 762 mmHg 59%
    09:00 +19°C° 0 mm 5 mps 762 mmHg 54%
    10:00 +21°C° 0 mm 6 mps 762 mmHg 48%
    11:00 +23°C° 0 mm 6 mps 761 mmHg 43%
    12:00 +24°C° 0 mm 6 mps 761 mmHg 42%
    13:00 +24°C° 0 mm 6 mps 760 mmHg 40%
    14:00 +26°C° 0 mm 7 mps 759 mmHg 39%
    15:00 +24°C° 0 mm 7 mps 759 mmHg 43%
    16:00 +24°C° 0 mm 7 mps 759 mmHg 48%
    17:00 +23°C° 0 mm 7 mps 759 mmHg 52%
    18:00 +21°C° 0 mm 7 mps 759 mmHg 60%
    19:00 +18°C° 0 mm 7 mps 759 mmHg 67%
    20:00 +16°C° 0 mm 7 mps 759 mmHg 74%
    21:00 +16°C° 0 mm 7 mps 759 mmHg 76%
    22:00 +16°C° 0 mm 6 mps 759 mmHg 78%
    23:00 +15°C° 0 mm 6 mps 759 mmHg 80%

    14 December, Friday

    Time Temperature Precipitation Wind Pressure Humidity
    00:00 +15°C° 0 mm 6 mps 759 mmHg 83%
    01:00 +15°C° 0 mm 5 mps 758 mmHg 85%
    02:00 +15°C° 0 mm 5 mps 758 mmHg 87%
    03:00 +15°C° 0 mm 5 mps 758 mmHg 88%
    04:00 +15°C° 0 mm 5 mps 757 mmHg 88%
    05:00 +15°C° 0 mm 4 mps 757 mmHg 89%
    06:00 +18°C° 0 mm 4 mps 757 mmHg 76%
    07:00 +20°C° 0 mm 4 mps 758 mmHg 64%
    08:00 +23°C° 0 mm 4 mps 758 mmHg 52%
    09:00 +26°C° 0 mm 4 mps 758 mmHg 45%
    10:00 +29°C° 0 mm 4 mps 757 mmHg 38%
    11:00 +31°C° 0 mm 3 mps 757 mmHg 31%
    12:00 +32°C° 0 mm 4 mps 757 mmHg 32%
    13:00 +32°C° 0 mm 5 mps 756 mmHg 33%
    14:00 +32°C° 0 mm 5 mps 756 mmHg 35%
    15:00 +30°C° 0 mm 6 mps 756 mmHg 39%
    16:00 +28°C° 0 mm 6 mps 756 mmHg 44%
    17:00 +27°C° 0 mm 6 mps 756 mmHg 49%
    18:00 +25°C° 0 mm 5 mps 756 mmHg 56%
    19:00 +22°C° 0 mm 5 mps 756 mmHg 63%
    20:00 +20°C° 0 mm 4 mps 756 mmHg 70%
    21:00 +20°C° 0 mm 4 mps 757 mmHg 72%
    22:00 +19°C° 0 mm 4 mps 757 mmHg 75%
    23:00 +19°C° 0 mm 4 mps 757 mmHg 77%

    15 December, Saturday

    Time Temperature Precipitation Wind Pressure Humidity
    00:00 +19°C° 0 mm 4 mps 756 mmHg 77%
    01:00 +19°C° 0 mm 4 mps 756 mmHg 76%
    02:00 +19°C° 0 mm 4 mps 756 mmHg 76%
    03:00 +19°C° 0 mm 4 mps 756 mmHg 78%
    04:00 +19°C° 0 mm 4 mps 756 mmHg 80%
    05:00 +19°C° 0 mm 4 mps 756 mmHg 83%
    06:00 +19°C° 0 mm 4 mps 756 mmHg 81%
    07:00 +20°C° 0 mm 4 mps 756 mmHg 78%
    08:00 +21°C° 0 mm 4 mps 757 mmHg 76%
    09:00 +22°C° 0 mm 4 mps 756 mmHg 72%
    10:00 +23°C° 0 mm 4 mps 756 mmHg 67%
    11:00 +25°C° 0 mm 4 mps 756 mmHg 63%
    12:00 +25°C° 0 mm 5 mps 756 mmHg 64%
    13:00 +25°C° 0 mm 5 mps 756 mmHg 65%
    14:00 +24°C° 0 mm 6 mps 756 mmHg 65%
    15:00 +22°C° 0 mm 6 mps 756 mmHg 69%
    16:00 +21°C° 0 mm 6 mps 757 mmHg 72%
    17:00 +20°C° 0 mm 7 mps 757 mmHg 76%
    18:00 +18°C° 0 mm 7 mps 757 mmHg 77%
    19:00 +19°C° 0 mm 6 mps 758 mmHg 78%
    20:00 +17°C° 0 mm 6 mps 758 mmHg 79%
    21:00 +17°C° 0.1 mm 7 mps 758 mmHg 80%
    22:00 +16°C° 0.1 mm 7 mps 759 mmHg 81%
    23:00 +16°C° 0.1 mm 7 mps 759 mmHg 82%
    Show more